Content
SEND FEEDBACK

Daily
Averages
Monthly
Summary
Saudi Arabia

BURAYDAH, SAUDI ARABIA


Home > Middle East > Saudi Arabia
Elevation: 2132 feet     Latitude: 26 18N     Longitude: 043 46E

WEATHER
 
SELECT A DAY
Number of Records: 178,233;   Date Range: 7/1/96 - 11/23/14
 
SHARE

PRINT THIS DATA

[ ← Previous Day ]
WEATHER ALMANAC - JANUARY 3, 2013
[ Next Day → ]
[ °C ]   °F
Weather ElementAverageHighLow
Temperature55.5 °F61 °F (3:00 pm)51.8 °F (5:00 am)
Dewpoint46.3 °F55.4 °F (12:00 am)39.2 °F (7:00 pm)
Humidity71 %94 % (7:00 am)40 % (6:00 pm)
Barometer30.21 in30.28 in (9:00 am)30.09 in (3:00 am)
Wind Speed11 mph17.3 mph (12:22 am)
Weather ElementAverage
Visibility5.3 mi
Wind DirectionNNE (35.3 °)

Weather ElementTotal
Precipitation---
Heating Degree Days8.6 (Base 65)
Growing Degree Days6.4 (Base 50)
Averaged from 32 records on January 3, 2013
WEATHER CONDITIONS BREAKOUT
WIND DIRECTION BREAKOUT
WEATHER BY HOUR - JANUARY 3, 2013
[ °C ]   °F
Local TimeTemperatureDewpointHumidityBarometerVisibilityWind DirectionWind SpeedGust SpeedPrecipitationEventsConditions
12:00 AM59.0 °F55.4 °F88 %30.12 inNorth (10°)15.0 mphClear
12:22 AM57.2 °F51.8 °F82 %30.12 in2.5 miNorth (10°)17.3 mphWidespread Dust
1:00 AM55.4 °F50.0 °F82 %30.15 in2.5 miNNE (20°)17.3 mphWidespread Dust
2:00 AM53.6 °F48.2 °F82 %30.15 in2.5 miNNE (20°)17.3 mphWidespread Dust
3:00 AM53.0 °F48.0 °F78 %30.09 in4.0 miNNE (20°)15.0 mphWidespread Dust
3:00 AM53.6 °F48.2 °F82 %30.15 in3.7 miNNE (20°)15.0 mphClear
4:00 AM53.6 °F48.2 °F82 %30.15 in5.0 miWNW (300°)13.8 mphClear
5:00 AM51.8 °F48.2 °F88 %30.18 in5.0 miNorth (10°)13.8 mphClear
6:00 AM51.8 °F48.2 °F88 %30.18 in5.0 miNorth (10°)16.1 mphClear
6:00 AM52.0 °F48.0 °F82 %30.15 in5.0 miNorth (10°)16.1 mphWidespread Dust
7:00 AM51.8 °F50.0 °F94 %30.21 in5.0 miNorth (10°)15.0 mphScattered Clouds
8:00 AM51.8 °F50.0 °F94 %30.24 in6.2 miNorth (10°)13.8 mphMostly Cloudy
9:00 AM52.0 °F50.0 °F90 %30.28 in6.0 miNNE (20°)11.5 mphMostly Cloudy
9:00 AM51.8 °F50.0 °F94 %30.27 in6.2 miNNE (20°)11.5 mphMostly Cloudy
10:00 AM53.6 °F50.0 °F88 %30.27 in6.2 miNNE (20°)13.8 mphMostly Cloudy
11:00 AM55.4 °F48.2 °F77 %30.27 in6.2 miNNE (20°)13.8 mphMostly Cloudy
12:00 PM57.2 °F44.6 °F63 %30.24 in6.2 miNNE (20°)11.5 mphMostly Cloudy
12:00 PM56.0 °F45.0 °F56 %30.24 in6.0 miNNE (20°)11.5 mphMostly Cloudy
1:00 PM59.0 °F44.6 °F59 %30.21 in6.2 miNE (40°)9.2 mphMostly Cloudy
2:00 PM60.8 °F46.4 °F59 %30.21 in6.2 miNE (50°)11.5 mphMostly Cloudy
3:00 PM61.0 °F46.0 °F48 %30.18 in6.0 miNE (40°)6.9 mphMostly Cloudy
3:00 PM60.8 °F46.4 °F59 %30.18 in6.2 miNE (40°)6.9 mphMostly Cloudy
4:00 PM60.8 °F48.2 °F63 %30.21 in6.2 miNNE (30°)9.2 mphScattered Clouds
5:00 PM59.0 °F44.6 °F59 %30.21 in6.2 miNE (40°)9.2 mphScattered Clouds
6:00 PM59.0 °F41.0 °F51 %30.24 inNE (40°)6.9 mphClear
6:00 PM59.0 °F41.0 °F40 %30.22 in6.0 miNE (40°)6.9 mph
7:00 PM57.2 °F39.2 °F51 %30.24 inNE (40°)4.6 mphClear
8:00 PM57.2 °F39.2 °F51 %30.24 inNE (40°)4.6 mphClear
9:00 PM54.0 °F41.0 °F51 %30.27 in6.0 miNE (40°)4.6 mph
9:00 PM53.6 °F41.0 °F62 %30.27 inNE (40°)4.6 mphClear
10:00 PM53.6 °F41.0 °F62 %30.27 inNE (40°)4.6 mphClear
11:00 PM51.8 °F41.0 °F67 %30.24 inNE (40°)4.6 mphClear
Hourly data recorded from OEGS, located miles away from Buraydah, Saudi Arabia







STORIES FROM OUR PARTNERS